User: anonymous   Login
Location: Unspecified
(0.0000°N, 0.0000°E)
Time: 01:38:08
(UTC+00:00)
Language:

NOSS 8 (F) - Orbit

View from above orbital plane
View from above orbital plane
View from above satellite
View from above satellite

Ground track
Ground track

The orbit data is extracted from the following two-line orbital elements,

1 18010U 87043F   16048.74537040 0.00002000  00000-0  35388-3 0    06
2 18010  63.3360 308.7382 0841000  38.0642 321.9358 13.44109041    08
Epoch (UTC): 17 February 2016 17:53:20
Eccentricity: 0.0841000
inclination: 63.3360°
perigee height: 465 km
apogee height: 1722 km
right ascension of ascending node: 308.7382°
argument of perigee: 38.0642°
revolutions per day: 13.44109041
mean anomaly at epoch: 321.9358°
orbit number at epoch: 0

The dashed part of the orbit path shows where the satellite is in the earth's shadow,  

DLR